Location: ??????
(56.0120°N, 39.1740°E)
Time: 20:25:09
(UTC+00:00)

Cosmos 1302 Rocket - Pass Details

Date: 14 April 2026
Orbit: 752 x 771 km, 74.0° (Epoch: 11 May)

Event Time Altitude Azimuth Distance (km) Brightness Sun altitude
Exits shadow 23:29:15 33° 179° (S) 1,262 4.7 -19.3°
Maximum altitude 23:31:29 62° 112° (ESE) 852 4.2 -19.1°
Drops below altitude 10° 23:36:35 10° 33° (NNE) 2,289 7.7 -18.7°
Sets 23:38:59 0° 30° (NNE) 3,218 8.9 -18.5°
